Showing default

NISAR, 65053

Orbit data source: Space-Track

NISAR, 65053 is an Indian payload satellite in SSO that was launched on Wed, 30 Jul 2025 UTC via a GSLV MK II launch vehicle from the Sirharikota (SRI). Payload-class satellites include a variety of spacecraft equipped with specific instruments for various scientific and technological missions. These include communications satellites like Starlink; space stations such as the ISS; scientific satellites like the Hubble; Earth observation satellites from companies like Planet Labs, Umbra, and HawkEye 360; GPS; miniature CubeSats for education and research; and military/defense satellites.

Loading next visibility...
Identifier
65053, 2025-163A
Orbit
SSO
Country
Flag of ININ / IND
Related business
Manufacturer
ISRO
Mission
Operational Civil Radar Imaging
Bus & Motor
I3K, ISRO LAM
Mass
2,393 kg wet, ~2,300 kg dry
Launch date (UTC)
2025-07-30 (1 year ago)
Launch vehicle
GSLV MK II
Launch site
Sirharikota (SRI)
Object type
Payload
Rocket body
Debris
Shape & HBR
Box + 2 Pan, 14.3 m
Radar Cross Section
10.461 m², Large (>1 m²)

Expand to show TLE details & history
Last TLE update: 8 hours ago

TLE from 8 hours ago
0 NISAR
1 65053U 25163A   26208.60430691 -.00000036  00000-0  23095-5 0  9997
2 65053  98.4058  35.6798 0001159  89.4782 270.6540 14.42505010 52213
Epoch: 2026-07-27T14:30Z
TLE epoch observation values (Epoch: 2026-07-27T14:30:12.117Z)
Latitude
-0.00006°
Longitude
-127.15618°
Altitude
753.179 km
Speed
7.478 km/s
True Right ascension
02h 22m 43s
True Declination
0° 00' 00"
Sunlit
Object was in daylight at epoch
Visualization orbit readout
Latitude
Unknown
Longitude
Unknown
Altitude
Unknown
Speed
Unknown
Apparent Right ascension
Unknown
Apparent Declination
Unknown
Sunlit
N/A
Visualization observer readout
Local Sidereal Time
12:10:02
Azimuth
Unknown
Elevation
Unknown
Doppler factor
Unknown
Orbital elements
Apogee altitude
748.174 km
Perigee altitude
746.522 km
Semi-major axis
7,125.485 km
Eccentricity
0.00012
Inclination
98.4058°
RAAN
35.6798°
Arg. of periapsis
89.4782°
True anomaly
270.64072°
Mean anomaly
270.654°
Eccentric anomaly
270.64736°
Mean motion
3.60846 °/min
Orbital period
99.77 mins
BSTAR
0.0000023095
Loading maneuver chart data...
Computing Atmospheric mass density...
Loading historical data...
Loading historical data...
Loading historical data...
Loading historical data...
Loading historical data...
Loading historical data...
Loading historical data...
Other satellites on launch #163 in the year 2025 (2025-07-30 UTC)

Documentation

Showing up to 5 results
|